Terminal Aerodrome Forecast
Issued by NWS Binghamton, NY

Home | Current Version | Previous Version | Text Only | Print | Product List | Glossary On
Versions: 1 2 3 4 5 6 7 8 9 10 11 12 13 14 15 16 17 18 19 20 21 22 23 24 25 26
000
FTUS41 KBGM 300850 AAA
TAFBGM
TAF AMD
KBGM 300850Z 3009/0106 12005KT P6SM OVC060
     FM301000 13008KT P6SM -SHRA SCT025 OVC035
      TEMPO 3013/3016 4SM -SHRA BR OVC025
     FM301600 18012G20KT P6SM -SHRA SCT025 OVC040 PROB30 3020/3024
      4SM -TSRA OVC040CB
     FM010400 18007KT P6SM OVC050=

USA.gov is the U.S. government's official web portal to all federal, state and local government web resources and services.